Time,TemperatureF,DewpointF,PressureIn,WindDirection,WindDirectionDegrees,WindSpeedMPH,WindSpeedGustMPH,Humidity,HourlyPrecipIn,Conditions,Clouds,dailyrainin,SoftwareType,DateUTC
2013-12-16 00:00:00,21.1,19.4,29.71,WSW,243,0.0,0.0,93,0.00,,CLR,0.00,VWS V13.01,2013-12-16 05:00:00,
2013-12-16 00:01:00,21.1,19.4,29.71,WSW,243,0.0,0.0,93,0.00,,CLR,0.00,VWS V13.01,2013-12-16 05:01:00,
2013-12-16 00:02:00,21.1,19.4,29.71,WSW,243,0.0,0.0,93,0.00,,CLR,0.00,VWS V13.01,2013-12-16 05:02:00,
2013-12-16 00:04:00,21.1,19.4,29.71,WSW,240,0.0,0.0,93,0.00,,CLR,0.00,VWS V13.01,2013-12-16 05:04:00,
2013-12-16 00:08:00,21.2,19.5,29.71,WSW,240,0.0,0.0,93,0.00,,CLR,0.00,VWS V13.01,2013-12-16 05:08:00,
2013-12-16 00:13:00,21.3,19.6,29.71,West,270,0.0,0.0,93,0.00,,CLR,0.00,VWS V13.01,2013-12-16 05:13:00,
2013-12-16 00:18:00,21.5,19.8,29.71,WSW,254,0.0,0.0,93,0.00,,CLR,0.00,VWS V13.01,2013-12-16 05:18:00,
2013-12-16 00:23:00,21.6,19.9,29.71,WSW,237,0.0,0.0,93,0.00,,CLR,0.00,VWS V13.01,2013-12-16 05:23:00,
2013-12-16 00:28:00,21.8,20.1,29.71,WSW,237,0.0,0.0,93,0.00,,CLR,0.00,VWS V13.01,2013-12-16 05:28:00,
2013-12-16 00:33:00,21.9,19.9,29.72,WSW,239,0.0,0.0,92,0.00,,CLR,0.00,VWS V13.01,2013-12-16 05:33:00,
2013-12-16 00:39:00,21.8,19.8,29.72,WNW,291,0.0,0.0,92,0.00,,CLR,0.00,VWS V13.01,2013-12-16 05:39:00,
2013-12-16 00:44:00,21.8,19.8,29.71,WSW,237,0.0,0.0,92,0.00,,CLR,0.00,VWS V13.01,2013-12-16 05:44:00,
2013-12-16 00:49:00,21.7,19.7,29.72,WSW,238,0.0,0.0,92,0.00,,BKN095,0.00,VWS V13.01,2013-12-16 05:49:00,
2013-12-16 00:54:00,21.9,19.9,29.72,WSW,246,0.0,0.0,92,0.00,,BKN095,0.00,VWS V13.01,2013-12-16 05:54:00,
2013-12-16 00:59:00,22.2,20.2,29.72,WSW,239,0.0,0.0,92,0.00,,BKN095,0.00,VWS V13.01,2013-12-16 05:59:00,
2013-12-16 01:04:00,22.5,20.5,29.72,WSW,250,0.0,0.0,92,0.00,,BKN095,0.00,VWS V13.01,2013-12-16 06:04:00,
2013-12-16 01:09:00,22.8,20.6,29.72,SW,233,0.0,0.0,91,0.00,,BKN095,0.00,VWS V13.01,2013-12-16 06:09:00,
2013-12-16 01:14:00,22.8,20.6,29.72,SW,233,0.0,0.0,91,0.00,,BKN095,0.00,VWS V13.01,2013-12-16 06:14:00,
2013-12-16 01:20:00,22.8,20.8,29.72,WSW,257,0.0,0.0,92,0.00,,BKN095,0.00,VWS V13.01,2013-12-16 06:20:00,
2013-12-16 01:25:00,22.9,20.9,29.72,WSW,257,0.0,0.0,92,0.00,,BKN095,0.00,VWS V13.01,2013-12-16 06:25:00,
2013-12-16 01:30:00,22.9,20.9,29.73,WSW,257,0.0,0.0,92,0.00,,BKN095,0.00,VWS V13.01,2013-12-16 06:30:00,
2013-12-16 01:35:00,22.9,20.9,29.73,WSW,257,0.0,0.0,92,0.00,,BKN095,0.00,VWS V13.01,2013-12-16 06:35:00,
2013-12-16 01:40:00,22.9,20.9,29.73,SW,236,0.0,0.0,92,0.00,,BKN095,0.00,VWS V13.01,2013-12-16 06:40:00,
2013-12-16 01:45:00,23.0,21.0,29.73,SW,236,0.0,0.0,92,0.00,,BKN060,0.00,VWS V13.01,2013-12-16 06:45:00,
2013-12-16 01:50:00,23.0,21.3,29.73,SW,236,0.0,0.0,93,0.00,,BKN060,0.00,VWS V13.01,2013-12-16 06:50:00,
2013-12-16 01:55:00,23.0,21.0,29.73,SW,236,0.0,0.0,92,0.00,,BKN060,0.00,VWS V13.01,2013-12-16 06:55:00,
2013-12-16 02:00:00,23.1,21.4,29.74,SW,234,0.0,0.0,93,0.00,,BKN060,0.00,VWS V13.01,2013-12-16 07:00:00,
2013-12-16 02:05:00,23.1,21.4,29.74,SW,234,0.0,0.0,93,0.00,,BKN060,0.00,VWS V13.01,2013-12-16 07:05:00,
2013-12-16 02:11:00,23.1,21.4,29.74,WSW,241,0.0,0.0,93,0.00,,BKN060,0.00,VWS V13.01,2013-12-16 07:11:00,
2013-12-16 02:16:00,23.2,21.5,29.74,WSW,242,0.0,0.0,93,0.00,,BKN060,0.00,VWS V13.01,2013-12-16 07:16:00,
2013-12-16 02:21:00,23.3,21.6,29.74,WSW,242,0.0,0.0,93,0.00,,BKN060,0.00,VWS V13.01,2013-12-16 07:21:00,
2013-12-16 02:26:00,23.3,21.6,29.74,WSW,242,0.0,0.0,93,0.00,,BKN060,0.00,VWS V13.01,2013-12-16 07:26:00,
2013-12-16 02:31:00,23.3,21.6,29.74,WSW,242,0.0,0.0,93,0.00,,BKN060,0.00,VWS V13.01,2013-12-16 07:31:00,
2013-12-16 02:36:00,23.4,21.7,29.74,WSW,242,0.0,0.0,93,0.00,,BKN060,0.00,VWS V13.01,2013-12-16 07:36:00,
2013-12-16 02:41:00,23.4,21.7,29.75,WSW,242,0.0,0.0,93,0.00,,BKN060,0.00,VWS V13.01,2013-12-16 07:41:00,
2013-12-16 02:46:00,23.5,21.8,29.75,WSW,242,0.0,0.0,93,0.00,,OVC049,0.00,VWS V13.01,2013-12-16 07:46:00,
2013-12-16 02:51:00,23.4,21.7,29.75,WSW,242,0.0,0.0,93,0.00,,OVC049,0.00,VWS V13.01,2013-12-16 07:51:00,
2013-12-16 02:56:00,23.5,21.8,29.75,WSW,242,0.0,0.0,93,0.00,,OVC049,0.00,VWS V13.01,2013-12-16 07:56:00,
2013-12-16 03:02:00,23.4,21.7,29.76,WSW,242,0.0,0.0,93,0.00,,OVC049,0.00,VWS V13.01,2013-12-16 08:02:00,
2013-12-16 03:07:00,23.4,21.9,29.76,WSW,242,0.0,0.0,94,0.00,,OVC049,0.00,VWS V13.01,2013-12-16 08:07:00,
2013-12-16 03:12:00,23.3,21.8,29.76,WSW,242,0.0,0.0,94,0.00,,OVC049,0.00,VWS V13.01,2013-12-16 08:12:00,
2013-12-16 03:17:00,23.3,21.8,29.76,WSW,242,0.0,0.0,94,0.00,,OVC049,0.00,VWS V13.01,2013-12-16 08:17:00,
2013-12-16 03:22:00,23.2,21.7,29.76,WSW,242,0.0,0.0,94,0.00,,OVC049,0.00,VWS V13.01,2013-12-16 08:22:00,
2013-12-16 03:27:00,23.2,21.7,29.76,WSW,242,0.0,0.0,94,0.00,,OVC049,0.00,VWS V13.01,2013-12-16 08:27:00,
2013-12-16 03:32:00,23.2,21.7,29.77,WSW,242,0.0,0.0,94,0.00,,OVC049,0.00,VWS V13.01,2013-12-16 08:32:00,
2013-12-16 03:37:00,23.1,21.6,29.76,WSW,242,0.0,0.0,94,0.00,,OVC049,0.00,VWS V13.01,2013-12-16 08:37:00,
2013-12-16 03:42:00,23.0,21.5,29.76,WSW,242,0.0,0.0,94,0.00,,OVC049,0.00,VWS V13.01,2013-12-16 08:42:00,
2013-12-16 03:47:00,22.9,21.4,29.76,WSW,242,0.0,0.0,94,0.00,,OVC060,0.00,VWS V13.01,2013-12-16 08:47:00,
2013-12-16 03:53:00,22.8,21.3,29.76,WSW,242,0.0,0.0,94,0.00,,OVC060,0.00,VWS V13.01,2013-12-16 08:53:00,
2013-12-16 03:58:00,22.7,21.2,29.76,WSW,242,0.0,0.0,94,0.00,,OVC060,0.00,VWS V13.01,2013-12-16 08:58:00,
2013-12-16 04:03:00,22.6,21.1,29.77,WSW,242,0.0,0.0,94,0.00,,,0.00,VWS V13.01,2013-12-16 09:03:00,
2013-12-16 04:08:00,22.6,21.1,29.77,WSW,242,0.0,0.0,94,0.00,,,0.00,VWS V13.01,2013-12-16 09:08:00,
2013-12-16 04:13:00,22.7,21.2,29.77,WSW,242,0.0,0.0,94,0.00,,,0.00,VWS V13.01,2013-12-16 09:13:00,
2013-12-16 04:18:00,22.8,21.3,29.77,WSW,242,0.0,0.0,94,0.00,,,0.00,VWS V13.01,2013-12-16 09:18:00,
2013-12-16 04:23:00,22.9,21.4,29.77,WSW,246,0.0,0.0,94,0.00,,,0.00,VWS V13.01,2013-12-16 09:23:00,
2013-12-16 04:28:00,23.0,21.3,29.78,WSW,246,0.0,0.0,93,0.00,,,0.00,VWS V13.01,2013-12-16 09:28:00,
2013-12-16 04:33:00,22.9,21.2,29.78,WSW,246,0.0,0.0,93,0.00,,,0.00,VWS V13.01,2013-12-16 09:33:00,
2013-12-16 04:38:00,22.8,21.1,29.78,WSW,246,0.0,0.0,93,0.00,,,0.00,VWS V13.01,2013-12-16 09:38:00,
2013-12-16 04:43:00,22.7,21.0,29.78,WSW,246,0.0,0.0,93,0.00,,,0.00,VWS V13.01,2013-12-16 09:43:00,
2013-12-16 04:49:00,22.6,20.6,29.78,SW,232,0.0,0.0,92,0.00,,OVC065,0.00,VWS V13.01,2013-12-16 09:49:00,
2013-12-16 04:54:00,22.4,20.7,29.78,West,261,0.0,0.0,93,0.00,,OVC065,0.00,VWS V13.01,2013-12-16 09:54:00,
2013-12-16 04:59:00,22.4,20.7,29.78,WSW,258,0.0,0.0,93,0.00,,OVC065,0.00,VWS V13.01,2013-12-16 09:59:00,
2013-12-16 05:04:00,22.7,20.7,29.78,WSW,241,0.0,0.0,92,0.00,,OVC065,0.00,VWS V13.01,2013-12-16 10:04:00,
2013-12-16 05:09:00,23.0,20.8,29.78,WSW,250,0.0,0.0,91,0.00,,OVC065,0.00,VWS V13.01,2013-12-16 10:09:00,
2013-12-16 05:14:00,23.2,21.0,29.79,WSW,250,0.0,0.0,91,0.00,,OVC065,0.00,VWS V13.01,2013-12-16 10:14:00,
2013-12-16 05:19:00,23.2,21.0,29.79,WSW,250,0.0,0.0,91,0.00,,OVC065,0.00,VWS V13.01,2013-12-16 10:19:00,
2013-12-16 05:24:00,23.3,20.8,29.80,West,264,0.0,0.0,90,0.00,,OVC065,0.00,VWS V13.01,2013-12-16 10:24:00,
2013-12-16 05:29:00,23.4,20.9,29.80,WSW,243,0.0,0.0,90,0.00,,OVC065,0.00,VWS V13.01,2013-12-16 10:29:00,
2013-12-16 05:34:00,23.6,20.6,29.80,West,269,0.0,0.0,88,0.00,,OVC065,0.00,VWS V13.01,2013-12-16 10:34:00,
2013-12-16 05:39:00,23.8,20.8,29.80,WNW,284,0.0,0.0,88,0.00,,OVC065,0.00,VWS V13.01,2013-12-16 10:39:00,
2013-12-16 05:45:00,23.8,20.5,29.81,WSW,238,0.0,0.0,87,0.00,,CLR,0.00,VWS V13.01,2013-12-16 10:45:00,
2013-12-16 05:50:00,23.8,20.5,29.81,SW,228,0.0,0.0,87,0.00,,CLR,0.00,VWS V13.01,2013-12-16 10:50:00,
2013-12-16 05:55:00,23.7,20.4,29.81,SW,228,0.0,0.0,87,0.00,,CLR,0.00,VWS V13.01,2013-12-16 10:55:00,
2013-12-16 06:00:00,23.5,20.2,29.81,SW,228,0.0,0.0,87,0.00,,CLR,0.00,VWS V13.01,2013-12-16 11:00:00,
2013-12-16 06:05:00,23.3,20.0,29.82,SW,228,0.0,0.0,87,0.00,,CLR,0.00,VWS V13.01,2013-12-16 11:05:00,
2013-12-16 06:10:00,23.0,19.7,29.82,SW,228,0.0,0.0,87,0.00,,CLR,0.00,VWS V13.01,2013-12-16 11:10:00,
2013-12-16 06:15:00,22.6,19.0,29.82,SW,223,0.0,0.0,86,0.00,,CLR,0.00,VWS V13.01,2013-12-16 11:15:00,
2013-12-16 06:20:00,22.4,18.6,29.82,SW,223,0.0,0.0,85,0.00,,CLR,0.00,VWS V13.01,2013-12-16 11:20:00,
2013-12-16 06:25:00,22.0,18.2,29.82,SW,223,0.0,0.0,85,0.00,,CLR,0.00,VWS V13.01,2013-12-16 11:25:00,
2013-12-16 06:31:00,21.7,17.9,29.82,SW,223,0.0,0.0,85,0.00,,CLR,0.00,VWS V13.01,2013-12-16 11:31:00,
2013-12-16 06:36:00,21.3,17.5,29.82,SW,223,0.0,0.0,85,0.00,,CLR,0.00,VWS V13.01,2013-12-16 11:36:00,
2013-12-16 06:41:00,21.1,17.3,29.83,SW,223,0.0,0.0,85,0.00,,CLR,0.00,VWS V13.01,2013-12-16 11:41:00,
2013-12-16 06:46:00,20.9,16.8,29.83,SW,225,0.0,0.0,84,0.00,,CLR,0.00,VWS V13.01,2013-12-16 11:46:00,
2013-12-16 06:51:00,20.9,16.6,29.84,West,271,0.0,0.0,83,0.00,,CLR,0.00,VWS V13.01,2013-12-16 11:51:00,
2013-12-16 06:56:00,20.9,16.6,29.84,West,271,0.0,0.0,83,0.00,,CLR,0.00,VWS V13.01,2013-12-16 11:56:00,
2013-12-16 07:01:00,20.9,16.3,29.84,NW,315,0.0,0.0,82,0.00,,CLR,0.00,VWS V13.01,2013-12-16 12:01:00,
2013-12-16 07:06:00,20.8,16.5,29.84,NNW,328,0.0,0.0,83,0.00,,CLR,0.00,VWS V13.01,2013-12-16 12:06:00,
2013-12-16 07:11:00,20.7,16.4,29.84,NNW,327,0.0,0.0,83,0.00,,CLR,0.00,VWS V13.01,2013-12-16 12:11:00,
2013-12-16 07:17:00,20.6,16.0,29.85,WNW,298,0.0,0.0,82,0.00,,CLR,0.00,VWS V13.01,2013-12-16 12:17:00,
2013-12-16 07:22:00,20.6,15.7,29.85,NW,315,0.0,0.0,81,0.00,,CLR,0.00,VWS V13.01,2013-12-16 12:22:00,
2013-12-16 07:27:00,20.6,15.7,29.86,NNW,328,0.0,0.0,81,0.00,,CLR,0.00,VWS V13.01,2013-12-16 12:27:00,
2013-12-16 07:32:00,20.6,16.0,29.86,NW,323,0.0,0.0,82,0.00,,CLR,0.00,VWS V13.01,2013-12-16 12:32:00,
2013-12-16 07:37:00,20.6,16.0,29.86,West,265,0.0,0.0,82,0.00,,CLR,0.00,VWS V13.01,2013-12-16 12:37:00,
2013-12-16 07:42:00,20.5,15.9,29.87,WNW,292,0.0,0.0,82,0.00,,CLR,0.00,VWS V13.01,2013-12-16 12:42:00,
2013-12-16 07:48:00,20.4,15.8,29.86,WNW,292,0.0,0.0,82,0.00,,CLR,0.00,VWS V13.01,2013-12-16 12:48:00,
2013-12-16 07:53:00,20.5,15.6,29.86,NW,309,0.0,0.0,81,0.00,,CLR,0.00,VWS V13.01,2013-12-16 12:53:00,
2013-12-16 07:58:00,20.6,15.4,29.86,West,263,0.0,0.0,80,0.00,,CLR,0.00,VWS V13.01,2013-12-16 12:58:00,
2013-12-16 08:03:00,20.7,15.5,29.87,WNW,301,0.0,0.0,80,0.00,,CLR,0.00,VWS V13.01,2013-12-16 13:03:00,
2013-12-16 08:08:00,20.7,15.5,29.87,WNW,284,0.0,0.0,80,0.00,,CLR,0.00,VWS V13.01,2013-12-16 13:08:00,
2013-12-16 08:13:00,20.8,15.9,29.88,WNW,284,0.0,0.0,81,0.00,,CLR,0.00,VWS V13.01,2013-12-16 13:13:00,
2013-12-16 08:18:00,21.0,15.8,29.88,WNW,301,0.0,0.0,80,0.00,,CLR,0.00,VWS V13.01,2013-12-16 13:18:00,
2013-12-16 08:24:00,21.1,15.9,29.88,WNW,290,0.0,0.0,80,0.00,,CLR,0.00,VWS V13.01,2013-12-16 13:24:00,
2013-12-16 08:29:00,21.2,15.7,29.89,WNW,285,0.0,0.0,79,0.00,,CLR,0.00,VWS V13.01,2013-12-16 13:29:00,
2013-12-16 08:34:00,21.4,15.6,29.89,West,272,0.0,0.0,78,0.00,,CLR,0.00,VWS V13.01,2013-12-16 13:34:00,
2013-12-16 08:39:00,21.7,16.2,29.89,West,261,0.0,0.0,79,0.00,,CLR,0.00,VWS V13.01,2013-12-16 13:39:00,
2013-12-16 08:44:00,21.8,15.7,29.90,WNW,303,0.0,0.0,77,0.00,,CLR,0.00,VWS V13.01,2013-12-16 13:44:00,
2013-12-16 08:49:00,22.0,15.9,29.90,West,266,0.0,0.0,77,0.00,,CLR,0.00,VWS V13.01,2013-12-16 13:49:00,
2013-12-16 08:54:00,22.1,16.0,29.90,WNW,296,0.0,0.0,77,0.00,,CLR,0.00,VWS V13.01,2013-12-16 13:54:00,
2013-12-16 08:59:00,22.2,16.1,29.90,WNW,292,0.0,0.0,77,0.00,,CLR,0.00,VWS V13.01,2013-12-16 13:59:00,
2013-12-16 09:04:00,22.3,16.2,29.91,WSW,238,0.0,0.0,77,0.00,,CLR,0.00,VWS V13.01,2013-12-16 14:04:00,
2013-12-16 09:09:00,22.4,15.7,29.91,NW,316,0.0,0.0,75,0.00,,CLR,0.00,VWS V13.01,2013-12-16 14:09:00,
2013-12-16 09:14:00,22.6,15.3,29.91,NW,315,0.0,0.0,73,0.00,,CLR,0.00,VWS V13.01,2013-12-16 14:14:00,
2013-12-16 09:20:00,22.8,15.5,29.92,WNW,285,0.0,0.0,73,0.00,,CLR,0.00,VWS V13.01,2013-12-16 14:20:00,
2013-12-16 09:25:00,22.9,15.9,29.92,West,262,0.0,0.0,74,0.00,,CLR,0.00,VWS V13.01,2013-12-16 14:25:00,
2013-12-16 09:30:00,22.9,15.9,29.92,NW,305,0.0,0.0,74,0.00,,CLR,0.00,VWS V13.01,2013-12-16 14:30:00,
2013-12-16 09:35:00,23.0,16.0,29.92,West,267,0.0,0.0,74,0.00,,CLR,0.00,VWS V13.01,2013-12-16 14:35:00,
2013-12-16 09:40:00,23.1,16.4,29.92,WNW,302,0.0,0.0,75,0.00,,CLR,0.00,VWS V13.01,2013-12-16 14:40:00,
2013-12-16 09:45:00,23.4,16.0,29.92,WNW,285,0.0,0.0,73,0.00,,CLR,0.00,VWS V13.01,2013-12-16 14:45:00,
2013-12-16 09:50:00,23.6,15.9,29.92,West,279,0.0,0.0,72,0.00,,CLR,0.00,VWS V13.01,2013-12-16 14:50:00,
2013-12-16 09:55:00,23.8,15.5,29.93,WNW,295,0.0,0.0,70,0.00,,CLR,0.00,VWS V13.01,2013-12-16 14:55:00,
2013-12-16 10:00:00,24.1,15.8,29.93,WNW,296,0.0,0.0,70,0.00,,CLR,0.00,VWS V13.01,2013-12-16 15:00:00,
2013-12-16 10:06:00,24.4,16.4,29.93,WNW,285,0.0,0.0,71,0.00,,CLR,0.00,VWS V13.01,2013-12-16 15:06:00,
2013-12-16 10:11:00,24.7,15.7,29.93,West,267,0.0,0.0,68,0.00,,CLR,0.00,VWS V13.01,2013-12-16 15:11:00,
2013-12-16 10:16:00,24.8,16.1,29.93,WNW,292,0.0,0.0,69,0.00,,CLR,0.00,VWS V13.01,2013-12-16 15:16:00,
2013-12-16 10:21:00,24.9,15.9,29.93,North,360,0.0,0.0,68,0.00,,CLR,0.00,VWS V13.01,2013-12-16 15:21:00,
2013-12-16 10:26:00,25.1,16.7,29.93,NW,306,0.0,0.0,70,0.00,,CLR,0.00,VWS V13.01,2013-12-16 15:26:00,
2013-12-16 10:31:00,25.2,16.5,29.93,NNW,333,0.0,0.0,69,0.00,,CLR,0.00,VWS V13.01,2013-12-16 15:31:00,
2013-12-16 10:36:00,25.2,16.1,29.93,West,279,0.0,0.0,68,0.00,,CLR,0.00,VWS V13.01,2013-12-16 15:36:00,
2013-12-16 10:41:00,25.3,15.6,29.93,NW,319,0.0,0.0,66,0.00,,CLR,0.00,VWS V13.01,2013-12-16 15:41:00,
2013-12-16 10:46:00,25.4,14.9,29.92,West,259,0.0,0.0,64,0.00,,CLR,0.00,VWS V13.01,2013-12-16 15:46:00,
2013-12-16 10:52:00,25.5,14.3,29.92,NW,311,0.0,0.0,62,0.00,,CLR,0.00,VWS V13.01,2013-12-16 15:52:00,
2013-12-16 10:57:00,25.6,14.8,29.92,WNW,297,0.0,0.0,63,0.00,,CLR,0.00,VWS V13.01,2013-12-16 15:57:00,
2013-12-16 11:02:00,25.7,14.5,29.92,WNW,298,0.0,0.0,62,0.00,,CLR,0.00,VWS V13.01,2013-12-16 16:02:00,
2013-12-16 11:07:00,26.1,14.9,29.92,NNW,333,0.0,0.0,62,0.00,,CLR,0.00,VWS V13.01,2013-12-16 16:07:00,
2013-12-16 11:12:00,26.6,14.2,29.92,NW,319,0.0,0.0,59,0.00,,CLR,0.00,VWS V13.01,2013-12-16 16:12:00,
2013-12-16 11:17:00,26.8,14.8,29.92,WNW,292,0.0,0.0,60,0.00,,CLR,0.00,VWS V13.01,2013-12-16 16:17:00,
2013-12-16 11:22:00,27.0,15.4,29.92,NW,319,0.0,0.0,61,0.00,,CLR,0.00,VWS V13.01,2013-12-16 16:22:00,
2013-12-16 11:27:00,26.9,14.9,29.92,NNW,342,0.0,0.0,60,0.00,,CLR,0.00,VWS V13.01,2013-12-16 16:27:00,
2013-12-16 11:32:00,27.1,14.3,29.92,West,273,0.0,0.0,58,0.00,,CLR,0.00,VWS V13.01,2013-12-16 16:32:00,
2013-12-16 11:37:00,27.1,14.7,29.92,WNW,290,0.0,0.0,59,0.00,,CLR,0.00,VWS V13.01,2013-12-16 16:37:00,
2013-12-16 11:43:00,27.1,12.7,29.92,West,271,0.0,0.0,54,0.00,,CLR,0.00,VWS V13.01,2013-12-16 16:43:00,
2013-12-16 11:48:00,27.1,13.5,29.92,NNE,12,0.0,0.0,56,0.00,,CLR,0.00,VWS V13.01,2013-12-16 16:48:00,
2013-12-16 11:53:00,27.1,12.7,29.92,WNW,298,0.0,0.0,54,0.00,,CLR,0.00,VWS V13.01,2013-12-16 16:53:00,
2013-12-16 11:58:00,27.0,13.0,29.92,WNW,283,0.0,0.0,55,0.00,,CLR,0.00,VWS V13.01,2013-12-16 16:58:00,
2013-12-16 12:03:00,27.2,14.4,29.92,WNW,296,0.0,0.0,58,0.00,,CLR,0.00,VWS V13.01,2013-12-16 17:03:00,
2013-12-16 12:08:00,27.4,13.8,29.92,West,267,0.0,0.0,56,0.00,,CLR,0.00,VWS V13.01,2013-12-16 17:08:00,
2013-12-16 12:13:00,27.6,13.6,29.92,WNW,293,0.0,0.0,55,0.00,,CLR,0.00,VWS V13.01,2013-12-16 17:13:00,
2013-12-16 12:18:00,27.5,12.2,29.93,West,281,0.0,0.0,52,0.00,,CLR,0.00,VWS V13.01,2013-12-16 17:18:00,
2013-12-16 12:23:00,27.6,13.1,29.93,West,268,0.0,0.0,54,0.00,,CLR,0.00,VWS V13.01,2013-12-16 17:23:00,
2013-12-16 12:28:00,27.6,12.3,29.92,WNW,292,0.0,0.0,52,0.00,,CLR,0.00,VWS V13.01,2013-12-16 17:28:00,
2013-12-16 12:34:00,27.9,14.6,29.92,NW,304,0.0,0.0,57,0.00,,CLR,0.00,VWS V13.01,2013-12-16 17:34:00,
2013-12-16 12:39:00,28.1,14.0,29.93,North,9,0.0,0.0,55,0.00,,CLR,0.00,VWS V13.01,2013-12-16 17:39:00,
2013-12-16 12:44:00,28.4,15.1,29.93,WNW,303,0.0,0.0,57,0.00,,CLR,0.00,VWS V13.01,2013-12-16 17:44:00,
2013-12-16 12:49:00,28.8,16.3,29.93,West,271,0.0,0.0,59,0.00,,CLR,0.00,VWS V13.01,2013-12-16 17:49:00,
2013-12-16 12:54:00,28.8,15.5,29.93,NW,311,0.0,0.0,57,0.00,,CLR,0.00,VWS V13.01,2013-12-16 17:54:00,
2013-12-16 12:59:00,29.1,16.2,29.93,WNW,292,0.0,0.0,58,0.00,,CLR,0.00,VWS V13.01,2013-12-16 17:59:00,
2013-12-16 13:04:00,28.9,13.1,29.93,WNW,289,0.0,0.0,51,0.00,,CLR,0.00,VWS V13.01,2013-12-16 18:04:00,
2013-12-16 13:09:00,28.6,13.2,29.93,West,274,0.0,0.0,52,0.00,,CLR,0.00,VWS V13.01,2013-12-16 18:09:00,
2013-12-16 13:14:00,28.1,12.8,29.93,West,281,0.0,0.0,52,0.00,,CLR,0.00,VWS V13.01,2013-12-16 18:14:00,
2013-12-16 13:20:00,27.8,12.5,29.93,West,277,0.0,0.0,52,0.00,,CLR,0.00,VWS V13.01,2013-12-16 18:20:00,
2013-12-16 13:25:00,27.5,11.3,29.93,WNW,294,0.0,0.0,50,0.00,,CLR,0.00,VWS V13.01,2013-12-16 18:25:00,
2013-12-16 13:30:00,27.4,14.6,29.93,NNE,27,0.0,0.0,58,0.00,,CLR,0.00,VWS V13.01,2013-12-16 18:30:00,
2013-12-16 13:35:00,27.3,13.3,29.93,NW,310,0.0,0.0,55,0.00,,CLR,0.00,VWS V13.01,2013-12-16 18:35:00,
2013-12-16 13:40:00,27.4,12.5,29.93,WNW,282,0.0,0.0,53,0.00,,CLR,0.00,VWS V13.01,2013-12-16 18:40:00,
2013-12-16 13:45:00,27.3,12.9,29.93,WNW,284,0.0,0.0,54,0.00,,FEW060,0.00,VWS V13.01,2013-12-16 18:45:00,
2013-12-16 13:50:00,27.1,13.1,29.93,WNW,295,0.0,0.0,55,0.00,,FEW060,0.00,VWS V13.01,2013-12-16 18:50:00,
2013-12-16 13:55:00,26.9,11.6,29.93,West,269,0.0,0.0,52,0.00,,FEW060,0.00,VWS V13.01,2013-12-16 18:55:00,
2013-12-16 14:00:00,26.8,11.1,29.94,North,349,0.0,0.0,51,0.00,,FEW060,0.00,VWS V13.01,2013-12-16 19:00:00,
2013-12-16 14:05:00,26.7,12.3,29.94,West,277,0.0,0.0,54,0.00,,FEW060,0.00,VWS V13.01,2013-12-16 19:05:00,
2013-12-16 14:11:00,26.7,13.5,29.94,West,280,0.0,0.0,57,0.00,,FEW060,0.00,VWS V13.01,2013-12-16 19:11:00,
2013-12-16 14:16:00,26.7,11.9,29.94,NW,311,0.0,0.0,53,0.00,,FEW060,0.00,VWS V13.01,2013-12-16 19:16:00,
2013-12-16 14:21:00,26.6,13.0,29.95,NNW,344,0.0,0.0,56,0.00,,FEW060,0.00,VWS V13.01,2013-12-16 19:21:00,
2013-12-16 14:26:00,26.3,11.5,29.95,NW,307,0.0,0.0,53,0.00,,FEW060,0.00,VWS V13.01,2013-12-16 19:26:00,
2013-12-16 14:31:00,26.1,12.6,29.95,West,263,0.0,0.0,56,0.00,,FEW060,0.00,VWS V13.01,2013-12-16 19:31:00,
2013-12-16 14:36:00,26.0,12.5,29.95,WNW,296,0.0,0.0,56,0.00,,FEW060,0.00,VWS V13.01,2013-12-16 19:36:00,
2013-12-16 14:41:00,25.9,12.8,29.95,WNW,297,0.0,0.0,57,0.00,,FEW060,0.00,VWS V13.01,2013-12-16 19:41:00,
2013-12-16 14:46:00,25.8,11.9,29.96,WNW,287,0.0,0.0,55,0.00,,CLR,0.00,VWS V13.01,2013-12-16 19:46:00,
2013-12-16 14:51:00,25.7,12.2,29.96,WNW,286,0.0,0.0,56,0.00,,CLR,0.00,VWS V13.01,2013-12-16 19:51:00,
2013-12-16 14:56:00,25.6,12.5,29.97,WSW,252,0.0,0.0,57,0.00,,CLR,0.00,VWS V13.01,2013-12-16 19:56:00,
2013-12-16 15:01:00,25.4,12.3,29.97,WNW,282,0.0,0.0,57,0.00,,CLR,0.00,VWS V13.01,2013-12-16 20:01:00,
2013-12-16 15:06:00,25.3,12.6,29.98,West,261,0.0,0.0,58,0.00,,CLR,0.00,VWS V13.01,2013-12-16 20:06:00,
2013-12-16 15:11:00,25.2,10.9,29.98,West,259,0.0,0.0,54,0.00,,CLR,0.00,VWS V13.01,2013-12-16 20:11:00,
2013-12-16 15:17:00,25.2,10.9,29.99,NNE,19,7.0,7.0,54,0.00,,CLR,0.00,VWS V13.01,2013-12-16 20:17:00,
2013-12-16 15:22:00,25.2,10.9,29.99,West,270,3.0,8.0,54,0.00,,CLR,0.00,VWS V13.01,2013-12-16 20:22:00,
2013-12-16 15:27:00,25.0,11.1,29.99,NW,309,0.0,8.0,55,0.00,,CLR,0.00,VWS V13.01,2013-12-16 20:27:00,
2013-12-16 15:32:00,24.9,11.0,30.00,NNW,331,3.0,6.0,55,0.00,,CLR,0.00,VWS V13.01,2013-12-16 20:32:00,
2013-12-16 15:37:00,24.7,10.9,30.00,NW,316,1.0,8.0,55,0.00,,CLR,0.00,VWS V13.01,2013-12-16 20:37:00,
2013-12-16 15:42:00,24.4,11.0,30.00,WNW,292,0.0,8.0,56,0.00,,CLR,0.00,VWS V13.01,2013-12-16 20:42:00,
2013-12-16 15:47:00,24.3,10.9,30.00,West,276,1.0,11.0,56,0.00,,CLR,0.00,VWS V13.01,2013-12-16 20:47:00,
2013-12-16 15:52:00,24.2,10.8,30.00,West,275,0.0,11.0,56,0.00,,CLR,0.00,VWS V13.01,2013-12-16 20:52:00,
2013-12-16 15:58:00,23.9,11.3,30.01,WSW,249,0.0,11.0,58,0.00,,CLR,0.00,VWS V13.01,2013-12-16 20:58:00,
2013-12-16 16:03:00,23.6,11.4,30.01,NNW,331,0.0,2.0,59,0.00,,SCT060,0.00,VWS V13.01,2013-12-16 21:03:00,
2013-12-16 16:08:00,23.4,11.2,30.02,WNW,296,0.0,3.0,59,0.00,,SCT060,0.00,VWS V13.01,2013-12-16 21:08:00,
2013-12-16 16:13:00,23.2,11.4,30.02,NW,325,0.0,5.0,60,0.00,,SCT060,0.00,VWS V13.01,2013-12-16 21:13:00,
2013-12-16 16:18:00,23.0,11.2,30.02,WNW,296,0.0,5.0,60,0.00,,SCT060,0.00,VWS V13.01,2013-12-16 21:18:00,
2013-12-16 16:23:00,22.9,11.8,30.03,NNE,19,0.0,5.0,62,0.00,,SCT060,0.00,VWS V13.01,2013-12-16 21:23:00,
2013-12-16 16:28:00,22.6,11.9,30.03,WNW,284,1.0,5.0,63,0.00,,SCT060,0.00,VWS V13.01,2013-12-16 21:28:00,
2013-12-16 16:33:00,22.5,11.1,30.03,WSW,252,0.0,3.0,61,0.00,,SCT060,0.00,VWS V13.01,2013-12-16 21:33:00,
2013-12-16 16:38:00,22.4,11.4,30.03,WNW,284,3.0,3.0,62,0.00,,SCT060,0.00,VWS V13.01,2013-12-16 21:38:00,
2013-12-16 16:43:00,22.3,11.3,30.04,WNW,300,0.0,4.0,62,0.00,,SCT060,0.00,VWS V13.01,2013-12-16 21:43:00,
2013-12-16 16:49:00,22.1,10.7,30.04,WNW,290,0.0,4.0,61,0.00,,CLR,0.00,VWS V13.01,2013-12-16 21:49:00,
2013-12-16 16:54:00,22.0,11.4,30.04,North,10,0.0,4.0,63,0.00,,CLR,0.00,VWS V13.01,2013-12-16 21:54:00,
2013-12-16 16:59:00,21.8,10.8,30.04,West,280,0.0,4.0,62,0.00,,CLR,0.00,VWS V13.01,2013-12-16 21:59:00,
2013-12-16 17:04:00,21.7,11.1,30.05,WSW,256,0.0,3.0,63,0.00,,CLR,0.00,VWS V13.01,2013-12-16 22:04:00,
2013-12-16 17:09:00,21.5,10.5,30.04,WNW,284,0.0,3.0,62,0.00,,CLR,0.00,VWS V13.01,2013-12-16 22:09:00,
2013-12-16 17:14:00,21.4,11.1,30.05,NW,323,0.0,3.0,64,0.00,,CLR,0.00,VWS V13.01,2013-12-16 22:14:00,
2013-12-16 17:19:00,21.2,10.9,30.05,WNW,285,0.0,3.0,64,0.00,,CLR,0.00,VWS V13.01,2013-12-16 22:19:00,
2013-12-16 17:24:00,21.0,10.8,30.05,WNW,291,0.0,3.0,64,0.00,,CLR,0.00,VWS V13.01,2013-12-16 22:24:00,
2013-12-16 17:29:00,20.9,11.0,30.05,WNW,291,0.0,3.0,65,0.00,,CLR,0.00,VWS V13.01,2013-12-16 22:29:00,
2013-12-16 17:34:00,20.7,11.1,30.05,WNW,291,0.0,0.0,66,0.00,,CLR,0.00,VWS V13.01,2013-12-16 22:34:00,
2013-12-16 17:39:00,20.4,10.9,30.06,WNW,291,0.0,0.0,66,0.00,,CLR,0.00,VWS V13.01,2013-12-16 22:39:00,
2013-12-16 17:45:00,20.1,10.9,30.06,WNW,291,0.0,0.0,67,0.00,,CLR,0.00,VWS V13.01,2013-12-16 22:45:00,
2013-12-16 17:50:00,19.8,10.6,30.06,WNW,291,0.0,0.0,67,0.00,,CLR,0.00,VWS V13.01,2013-12-16 22:50:00,
2013-12-16 17:55:00,19.6,10.8,30.06,WNW,291,0.0,0.0,68,0.00,,CLR,0.00,VWS V13.01,2013-12-16 22:55:00,
2013-12-16 18:00:00,19.4,10.6,30.06,WNW,291,0.0,0.0,68,0.00,,CLR,0.00,VWS V13.01,2013-12-16 23:00:00,
2013-12-16 18:05:00,19.2,10.7,30.06,WNW,291,0.0,0.0,69,0.00,,CLR,0.00,VWS V13.01,2013-12-16 23:05:00,
2013-12-16 18:10:00,19.1,10.6,30.06,WNW,291,0.0,0.0,69,0.00,,CLR,0.00,VWS V13.01,2013-12-16 23:10:00,
2013-12-16 18:15:00,19.0,10.5,30.07,WNW,291,0.0,0.0,69,0.00,,CLR,0.00,VWS V13.01,2013-12-16 23:15:00,
2013-12-16 18:20:00,18.8,10.6,30.07,WNW,291,0.0,0.0,70,0.00,,CLR,0.00,VWS V13.01,2013-12-16 23:20:00,
2013-12-16 18:26:00,18.8,10.3,30.07,WNW,291,0.0,0.0,69,0.00,,CLR,0.00,VWS V13.01,2013-12-16 23:26:00,
2013-12-16 18:31:00,18.8,10.3,30.07,WNW,291,0.0,0.0,69,0.00,,CLR,0.00,VWS V13.01,2013-12-16 23:31:00,
2013-12-16 18:36:00,18.8,10.6,30.07,WNW,291,0.0,0.0,70,0.00,,CLR,0.00,VWS V13.01,2013-12-16 23:36:00,
2013-12-16 18:41:00,18.7,10.2,30.08,NW,319,0.0,0.0,69,0.00,,CLR,0.00,VWS V13.01,2013-12-16 23:41:00,
2013-12-16 18:46:00,18.6,9.8,30.08,NW,319,0.0,0.0,68,0.00,,CLR,0.00,VWS V13.01,2013-12-16 23:46:00,
2013-12-16 18:51:00,18.6,9.8,30.09,West,260,0.0,1.0,68,0.00,,CLR,0.00,VWS V13.01,2013-12-16 23:51:00,
2013-12-16 18:56:00,18.8,10.0,30.09,West,260,0.0,2.0,68,0.00,,CLR,0.00,VWS V13.01,2013-12-16 23:56:00,
2013-12-16 19:01:00,18.8,10.0,30.10,West,260,0.0,2.0,68,0.00,,CLR,0.00,VWS V13.01,2013-12-17 00:01:00,
2013-12-16 19:06:00,18.8,10.0,30.11,West,272,0.0,0.0,68,0.00,,CLR,0.00,VWS V13.01,2013-12-17 00:06:00,
2013-12-16 19:12:00,18.8,10.0,30.11,WNW,286,0.0,0.0,68,0.00,,CLR,0.00,VWS V13.01,2013-12-17 00:12:00,
2013-12-16 19:17:00,18.7,9.9,30.10,WNW,286,0.0,0.0,68,0.00,,CLR,0.00,VWS V13.01,2013-12-17 00:17:00,
2013-12-16 19:22:00,18.6,10.1,30.11,WNW,286,0.0,0.0,69,0.00,,CLR,0.00,VWS V13.01,2013-12-17 00:22:00,
2013-12-16 19:27:00,18.4,9.9,30.11,West,267,0.0,1.0,69,0.00,,CLR,0.00,VWS V13.01,2013-12-17 00:27:00,
2013-12-16 19:32:00,18.4,9.6,30.11,NE,47,0.0,0.0,68,0.00,,CLR,0.00,VWS V13.01,2013-12-17 00:32:00,
2013-12-16 19:37:00,18.5,9.4,30.12,NE,47,0.0,0.0,67,0.00,,CLR,0.00,VWS V13.01,2013-12-17 00:37:00,
2013-12-16 19:42:00,18.4,9.6,30.11,WSW,258,0.0,0.0,68,0.00,,CLR,0.00,VWS V13.01,2013-12-17 00:42:00,
2013-12-16 19:47:00,18.3,9.5,30.12,WSW,242,2.0,2.0,68,0.00,,CLR,0.00,VWS V13.01,2013-12-17 00:47:00,
2013-12-16 19:52:00,18.1,9.3,30.12,SW,233,0.0,2.0,68,0.00,,CLR,0.00,VWS V13.01,2013-12-17 00:52:00,
2013-12-16 19:57:00,18.1,9.3,30.12,West,265,0.0,2.0,68,0.00,,CLR,0.00,VWS V13.01,2013-12-17 00:57:00,
2013-12-16 20:02:00,18.1,9.7,30.12,WSW,254,0.0,1.0,69,0.00,,CLR,0.00,VWS V13.01,2013-12-17 01:02:00,
2013-12-16 20:08:00,18.2,9.4,30.12,West,275,0.0,5.0,68,0.00,,CLR,0.00,VWS V13.01,2013-12-17 01:08:00,
2013-12-16 20:13:00,18.3,9.5,30.12,SW,232,0.0,5.0,68,0.00,,CLR,0.00,VWS V13.01,2013-12-17 01:13:00,
2013-12-16 20:18:00,18.4,9.6,30.13,WSW,257,0.0,5.0,68,0.00,,CLR,0.00,VWS V13.01,2013-12-17 01:18:00,
2013-12-16 20:23:00,18.4,9.6,30.13,West,276,0.0,5.0,68,0.00,,CLR,0.00,VWS V13.01,2013-12-17 01:23:00,
2013-12-16 20:25:00,18.4,9.6,30.13,NW,312,0.0,5.0,68,0.00,,CLR,0.00,VWS V13.01,2013-12-17 01:25:00,
2013-12-16 20:30:00,18.4,9.6,30.13,NW,312,0.0,5.0,68,0.00,,CLR,0.00,VWS V13.01,2013-12-17 01:30:00,
2013-12-16 20:35:00,18.4,9.9,30.13,NW,312,0.0,0.0,69,0.00,,CLR,0.00,VWS V13.01,2013-12-17 01:35:00,
2013-12-16 20:40:00,18.3,9.5,30.13,WNW,302,0.0,0.0,68,0.00,,CLR,0.00,VWS V13.01,2013-12-17 01:40:00,
2013-12-16 20:45:00,18.2,9.8,30.13,North,350,0.0,1.0,69,0.00,,CLR,0.00,VWS V13.01,2013-12-17 01:45:00,
2013-12-16 20:50:00,18.1,9.7,30.13,NW,326,0.0,1.0,69,0.00,,CLR,0.00,VWS V13.01,2013-12-17 01:50:00,
2013-12-16 20:55:00,18.0,9.6,30.14,West,280,0.0,1.0,69,0.00,,CLR,0.00,VWS V13.01,2013-12-17 01:55:00,
2013-12-16 21:00:00,17.9,9.8,30.14,WNW,284,0.0,1.0,70,0.00,,CLR,0.00,VWS V13.01,2013-12-17 02:00:00,
2013-12-16 21:05:00,17.8,9.7,30.13,North,355,0.0,2.0,70,0.00,,CLR,0.00,VWS V13.01,2013-12-17 02:05:00,
2013-12-16 21:10:00,17.9,9.5,30.13,WSW,258,0.0,2.0,69,0.00,,CLR,0.00,VWS V13.01,2013-12-17 02:10:00,
2013-12-16 21:16:00,18.2,9.4,30.14,NNW,328,1.0,4.0,68,0.00,,CLR,0.00,VWS V13.01,2013-12-17 02:16:00,
2013-12-16 21:21:00,18.3,9.9,30.15,North,360,2.0,4.0,69,0.00,,CLR,0.00,VWS V13.01,2013-12-17 02:21:00,
2013-12-16 21:26:00,18.4,9.6,30.15,WNW,290,0.0,10.0,68,0.00,,CLR,0.00,VWS V13.01,2013-12-17 02:26:00,
2013-12-16 21:31:00,18.5,9.7,30.15,WNW,299,0.0,10.0,68,0.00,,CLR,0.00,VWS V13.01,2013-12-17 02:31:00,
2013-12-16 21:36:00,18.4,9.6,30.15,WSW,252,0.0,3.0,68,0.00,,CLR,0.00,VWS V13.01,2013-12-17 02:36:00,
2013-12-16 21:41:00,18.3,9.2,30.15,West,259,2.0,6.0,67,0.00,,CLR,0.00,VWS V13.01,2013-12-17 02:41:00,
2013-12-16 21:46:00,18.2,9.4,30.15,WSW,246,0.0,6.0,68,0.00,,CLR,0.00,VWS V13.01,2013-12-17 02:46:00,
2013-12-16 21:51:00,18.1,9.3,30.15,WNW,282,0.0,6.0,68,0.00,,CLR,0.00,VWS V13.01,2013-12-17 02:51:00,
2013-12-16 21:57:00,18.1,9.0,30.16,WSW,254,0.0,6.0,67,0.00,,CLR,0.00,VWS V13.01,2013-12-17 02:57:00,
2013-12-16 22:02:00,18.2,9.4,30.16,WNW,283,0.0,0.0,68,0.00,,CLR,0.00,VWS V13.01,2013-12-17 03:02:00,
2013-12-16 22:07:00,18.2,9.1,30.16,WNW,303,0.0,2.0,67,0.00,,CLR,0.00,VWS V13.01,2013-12-17 03:07:00,
2013-12-16 22:12:00,18.1,9.0,30.15,WSW,252,1.0,3.0,67,0.00,,CLR,0.00,VWS V13.01,2013-12-17 03:12:00,
2013-12-16 22:17:00,18.0,9.2,30.15,WSW,250,0.0,3.0,68,0.00,,CLR,0.00,VWS V13.01,2013-12-17 03:17:00,
2013-12-16 22:22:00,17.8,9.0,30.16,West,259,0.0,3.0,68,0.00,,CLR,0.00,VWS V13.01,2013-12-17 03:22:00,
2013-12-16 22:27:00,17.6,9.2,30.16,West,259,0.0,3.0,69,0.00,,CLR,0.00,VWS V13.01,2013-12-17 03:27:00,
2013-12-16 22:32:00,17.3,9.2,30.16,West,259,0.0,1.0,70,0.00,,CLR,0.00,VWS V13.01,2013-12-17 03:32:00,
2013-12-16 22:37:00,17.1,9.0,30.16,West,259,0.0,1.0,70,0.00,,CLR,0.00,VWS V13.01,2013-12-17 03:37:00,
2013-12-16 22:42:00,16.9,9.1,30.16,West,259,1.0,2.0,71,0.00,,CLR,0.00,VWS V13.01,2013-12-17 03:42:00,
2013-12-16 22:47:00,16.7,8.9,30.16,West,259,1.0,2.0,71,0.00,,CLR,0.00,VWS V13.01,2013-12-17 03:47:00,
2013-12-16 22:53:00,16.5,8.8,30.16,West,259,0.0,2.0,71,0.00,,CLR,0.00,VWS V13.01,2013-12-17 03:53:00,
2013-12-16 22:58:00,16.3,8.6,30.16,West,259,0.0,2.0,71,0.00,,CLR,0.00,VWS V13.01,2013-12-17 03:58:00,
2013-12-16 23:03:00,16.2,8.8,30.16,West,259,0.0,0.0,72,0.00,,CLR,0.00,VWS V13.01,2013-12-17 04:03:00,
2013-12-16 23:08:00,16.0,8.6,30.16,West,259,0.0,0.0,72,0.00,,CLR,0.00,VWS V13.01,2013-12-17 04:08:00,
2013-12-16 23:13:00,15.9,8.2,30.17,West,259,0.0,2.0,71,0.00,,CLR,0.00,VWS V13.01,2013-12-17 04:13:00,
2013-12-16 23:18:00,15.9,8.2,30.17,West,259,0.0,2.0,71,0.00,,CLR,0.00,VWS V13.01,2013-12-17 04:18:00,
2013-12-16 23:23:00,15.8,8.1,30.17,West,259,0.0,2.0,71,0.00,,CLR,0.00,VWS V13.01,2013-12-17 04:23:00,
2013-12-16 23:28:00,15.6,8.2,30.17,West,259,0.0,2.0,72,0.00,,CLR,0.00,VWS V13.01,2013-12-17 04:28:00,
2013-12-16 23:33:00,15.4,8.0,30.17,West,259,0.0,0.0,72,0.00,,CLR,0.00,VWS V13.01,2013-12-17 04:33:00,
2013-12-16 23:38:00,15.2,8.1,30.17,West,259,0.0,0.0,73,0.00,,CLR,0.00,VWS V13.01,2013-12-17 04:38:00,
2013-12-16 23:44:00,15.0,7.9,30.17,West,259,0.0,0.0,73,0.00,,CLR,0.00,VWS V13.01,2013-12-17 04:44:00,
2013-12-16 23:49:00,14.9,7.8,30.17,West,259,0.0,0.0,73,0.00,,CLR,0.00,VWS V13.01,2013-12-17 04:49:00,
2013-12-16 23:54:00,14.7,7.6,30.17,West,259,0.0,0.0,73,0.00,,CLR,0.00,VWS V13.01,2013-12-17 04:54:00,
2013-12-16 23:59:00,14.5,8.3,30.17,West,259,0.0,0.0,76,0.00,,CLR,0.00,VWS V13.01,2013-12-17 04:59:00,